{"data":{"norad_id":63477,"epoch":"2026-05-24T20:07:48.414720Z","epoch_age_seconds":89127,"freshness":"FRESH","line1":"1 63477U 25070T   26144.83875480  .00010647  00000+0  39564-3 0  9998","line2":"2 63477  43.0036 186.1699 0003739 271.6640  88.3784 15.27596405 64667","mean_motion":15.27596405,"eccentricity":0.0003739,"inclination_deg":43.0036,"raan_deg":186.1699,"arg_perigee_deg":271.664,"mean_anomaly_deg":88.3784,"bstar":0.00039564,"rev_number":6466,"period_min":94.265736374262,"perigee_km":480.43459489301,"apogee_km":485.56535312218,"semimajor_km":6861.1369740076,"source":"CELESTRAK","updated_at":"2026-05-25T13:38:20.008710Z"}}